CW2401 Weather Reports


time (UTC)temp
C
wind
direction
speed
KPH
gust
KPH
rain 1hr
cm
rain 24hr
cm
rain mn
cm
humidity
%
barometer
mb
20260504141302 19 113 0.0 3.2 0.00 0.00 0.00 59 1018.0
20260504141102 19 113 0.0 3.2 0.00 0.00 0.00 59 1018.0
20260504140658 19 112 0.0 3.2 0.00 0.00 0.00 63 1018.0
20260504140457 18 111 0.0 3.2 0.00 0.00 0.00 65 1017.9
20260504130431 9 229 0.0 0.0 0.00 0.00 0.00 93 1018.0
20260504130228 9 229 0.0 0.0 0.00 0.00 0.00 93 1017.9
20260504120147 5 229 0.0 0.0 0.00 0.00 0.00 92 1018.3
20260504110124 3 229 0.0 0.0 0.00 0.00 0.00 91 1018.6
20260504081954 4 229 0.0 0.0 0.00 0.00 0.00 90 1018.1
20260504081753 4 229 0.0 0.0 0.00 0.00 0.00 90 1018.1
20260504081554 4 229 0.0 0.0 0.00 0.00 0.00 90 1018.1
20260504081352 4 229 0.0 0.0 0.00 0.00 0.00 89 1018.1
20260504081149 4 229 0.0 0.0 0.00 0.00 0.00 90 1018.1
20260504080947 4 229 0.0 0.0 0.00 0.00 0.00 90 1018.1
20260504080746 4 229 0.0 0.0 0.00 0.00 0.00 90 1018.1
20260504080549 4 229 0.0 0.0 0.00 0.00 0.00 90 1018.1
20260504080345 4 229 0.0 0.0 0.00 0.00 0.00 90 1018.0
20260504080143 4 229 0.0 0.0 0.00 0.00 0.00 90 1018.1
20260504070320 5 229 0.0 0.0 0.00 0.00 0.00 89 1017.9
20260504070118 5 229 0.0 0.0 0.00 0.00 0.00 89 1017.9
20260504050623 5 229 0.0 0.0 0.00 0.00 0.00 87 1018.5
20260504050425 5 229 0.0 0.0 0.00 0.00 0.00 87 1018.5
20260504050223 5 229 0.0 0.0 0.00 0.00 0.00 87 1018.5
20260504050020 5 229 0.0 0.0 0.00 0.00 0.00 87 1018.5
20260504045820 5 229 0.0 0.0 0.00 0.00 0.00 87 1018.5
20260504045620 5 229 0.0 0.0 0.00 0.00 0.00 87 1018.4
20260504045418 5 229 0.0 0.0 0.00 0.00 0.00 87 1018.4
20260504045220 5 229 0.0 0.0 0.00 0.00 0.00 87 1018.4
20260504045018 5 229 0.0 0.0 0.00 0.00 0.00 87 1018.4
20260504044815 5 229 0.0 0.0 0.00 0.00 0.00 87 1018.3
20260504044414 5 229 0.0 0.0 0.00 0.00 0.00 87 1018.3
20260504044210 6 229 0.0 0.0 0.00 0.00 0.00 86 1018.3
20260504044011 6 229 0.0 0.0 0.00 0.00 0.00 87 1018.4
20260504043811 6 229 0.0 0.0 0.00 0.00 0.00 86 1018.4
20260504043610 6 229 0.0 0.0 0.00 0.00 0.00 86 1018.4
20260504043408 6 229 0.0 0.0 0.00 0.00 0.00 86 1018.4
20260504043008 6 229 0.0 0.0 0.00 0.00 0.00 86 1018.4
20260504042604 6 229 0.0 0.0 0.00 0.00 0.00 86 1018.4
20260504042205 6 229 0.0 0.0 0.00 0.00 0.00 86 1018.5
20260504042005 6 229 0.0 0.0 0.00 0.00 0.00 86 1018.4
20260504041405 6 229 0.0 0.0 0.00 0.00 0.00 85 1018.4
20260504041205 6 229 0.0 0.0 0.00 0.00 0.00 85 1018.4
20260504041006 6 229 0.0 0.0 0.00 0.00 0.00 85 1018.4
20260504040805 6 229 0.0 0.0 0.00 0.00 0.00 85 1018.4
20260504040605 6 229 0.0 0.0 0.00 0.00 0.00 85 1018.4
20260504040004 6 229 0.0 0.0 0.00 0.00 0.00 85 1018.4
20260504035601 6 229 0.0 0.0 0.00 0.00 0.00 84 1018.4
20260504035359 6 229 0.0 0.0 0.00 0.00 0.00 84 1018.3
20260504035159 6 229 0.0 0.0 0.00 0.00 0.00 84 1018.3
20260504034556 6 229 0.0 0.0 0.00 0.00 0.00 84 1018.3
20260504034356 6 229 0.0 0.0 0.00 0.00 0.00 84 1018.3
20260504034154 6 229 0.0 0.0 0.00 0.00 0.00 83 1018.3
20260504033954 7 229 0.0 0.0 0.00 0.00 0.00 83 1018.4
20260504033755 7 229 0.0 0.0 0.00 0.00 0.00 83 1018.4
20260504032948 7 229 0.0 0.0 0.00 0.00 0.00 83 1018.4
20260504032747 7 229 0.0 0.0 0.00 0.00 0.00 83 1018.4
20260504032544 7 229 0.0 0.0 0.00 0.00 0.00 82 1018.4
20260504032346 7 229 0.0 0.0 0.00 0.00 0.00 82 1018.4
20260504031942 7 229 0.0 0.0 0.00 0.00 0.00 83 1018.4
20260504031741 7 229 0.0 0.0 0.00 0.00 0.00 82 1018.4
20260504031540 7 229 0.0 0.0 0.00 0.00 0.00 82 1018.4
20260504031339 7 229 0.0 0.0 0.00 0.00 0.00 82 1018.3
20260504031136 7 229 0.0 0.0 0.00 0.00 0.00 82 1018.3
20260504030934 7 229 0.0 0.0 0.00 0.00 0.00 82 1018.3
20260504030733 7 229 0.0 0.0 0.00 0.00 0.00 82 1018.2
20260504030531 7 229 0.0 0.0 0.00 0.00 0.00 82 1018.2
20260504030330 7 229 0.0 0.0 0.00 0.00 0.00 82 1018.2
20260504025930 7 229 0.0 0.0 0.00 0.00 0.00 81 1018.2
20260504025732 7 229 0.0 0.0 0.00 0.00 0.00 81 1018.3
20260504025531 7 229 0.0 0.0 0.00 0.00 0.00 81 1018.3
20260504025331 7 229 0.0 0.0 0.00 0.00 0.00 81 1018.3
20260504025130 7 229 0.0 0.0 0.00 0.00 0.00 81 1018.3
20260504024729 7 229 0.0 0.0 0.00 0.00 0.00 80 1018.2
20260504024528 7 229 0.0 0.0 0.00 0.00 0.00 80 1018.3
20260504023924 8 229 0.0 0.0 0.00 0.00 0.00 80 1018.1
20260504023721 8 229 0.0 0.0 0.00 0.00 0.00 80 1018.1
20260504023520 8 229 0.0 0.0 0.00 0.00 0.00 80 1018.1
20260504023318 8 229 0.0 0.0 0.00 0.00 0.00 79 1018.0
20260504023116 8 229 0.0 0.0 0.00 0.00 0.00 79 1018.0
20260504022916 8 229 0.0 0.0 0.00 0.00 0.00 79 1018.0
20260504022715 8 229 0.0 0.0 0.00 0.00 0.00 79 1018.0
20260504022513 8 229 0.0 0.0 0.00 0.00 0.00 79 1017.9
20260504022310 8 229 0.0 0.0 0.00 0.00 0.00 79 1017.9
20260504022111 8 229 0.0 0.0 0.00 0.00 0.00 78 1017.9
20260504021910 8 229 0.0 0.0 0.00 0.00 0.00 78 1018.0
20260504021708 8 229 0.0 0.0 0.00 0.00 0.00 78 1018.0
20260504021508 8 229 0.0 0.0 0.00 0.00 0.00 78 1018.0
20260504021308 8 229 0.0 0.0 0.00 0.00 0.00 78 1018.0
20260504021106 8 229 0.0 0.0 0.00 0.00 0.00 78 1017.9
20260504020906 8 229 0.0 0.0 0.00 0.00 0.00 78 1017.9
20260504020503 8 229 0.0 0.0 0.00 0.00 0.00 77 1018.0
20260504020305 9 229 0.0 0.0 0.00 0.00 0.00 76 1017.9
20260504015858 9 229 0.0 0.0 0.00 0.00 0.00 76 1017.9
20260504015658 9 229 0.0 0.0 0.00 0.00 0.00 75 1018.0
20260504015457 9 229 0.0 0.0 0.00 0.00 0.00 75 1018.0
20260504015258 9 229 0.0 0.0 0.00 0.00 0.00 75 1018.0
20260504015057 9 229 0.0 0.0 0.00 0.00 0.00 74 1018.0
20260504014855 9 229 0.0 0.0 0.00 0.00 0.00 74 1018.0
20260504014654 9 229 0.0 0.0 0.00 0.00 0.00 74 1018.0
20260504014456 9 229 0.0 0.0 0.00 0.00 0.00 74 1018.0
20260504014255 10 229 0.0 0.0 0.00 0.00 0.00 73 1017.9
20260504014054 10 229 0.0 0.0 0.00 0.00 0.00 73 1017.9
20260504013851 10 229 0.0 0.0 0.00 0.00 0.00 73 1018.0
20260504013652 10 229 0.0 0.0 0.00 0.00 0.00 72 1018.0
20260504013452 10 229 0.0 0.0 0.00 0.00 0.00 72 1017.9
20260504013249 10 229 0.0 0.0 0.00 0.00 0.00 71 1017.9
20260504013046 10 229 0.0 0.0 0.00 0.00 0.00 71 1017.9
20260504012845 10 229 0.0 0.0 0.00 0.00 0.00 71 1017.9
20260504012646 10 229 0.0 0.0 0.00 0.00 0.00 70 1017.9
20260504012445 10 229 0.0 0.0 0.00 0.00 0.00 69 1017.9
20260504012244 10 229 0.0 0.0 0.00 0.00 0.00 69 1017.9
20260504012042 10 229 0.0 0.0 0.00 0.00 0.00 68 1017.9
20260504011842 10 229 0.0 0.0 0.00 0.00 0.00 67 1017.8
20260504011642 10 229 0.0 0.0 0.00 0.00 0.00 68 1017.8
20260504011444 10 229 0.0 0.0 0.00 0.00 0.00 67 1017.8
20260504011243 10 229 0.0 0.0 0.00 0.00 0.00 67 1017.8
20260504010840 11 229 0.0 0.0 0.00 0.00 0.00 66 1017.7
20260504010636 11 229 0.0 0.0 0.00 0.00 0.00 66 1017.6
20260504010436 11 229 0.0 0.0 0.00 0.00 0.00 66 1017.6
20260504010236 11 229 0.0 0.0 0.00 0.00 0.00 65 1017.6
20260504010037 11 229 0.0 0.0 0.00 0.00 0.00 65 1017.5
20260504005834 11 229 0.0 0.0 0.00 0.00 0.00 64 1017.4
20260504005634 11 229 0.0 0.0 0.00 0.00 0.00 64 1017.4
20260504005434 11 229 0.0 0.0 0.00 0.00 0.00 63 1017.4
20260504005234 11 229 0.0 0.0 0.00 0.00 0.00 63 1017.3
20260504004432 12 229 0.0 0.0 0.00 0.00 0.00 60 1017.4
20260504004232 12 229 0.0 0.0 0.00 0.00 0.00 60 1017.3
20260504004033 12 229 0.0 0.0 0.00 0.00 0.00 60 1017.3
20260504003832 12 229 0.0 0.0 0.00 0.00 0.00 59 1017.4
20260504003633 12 229 0.0 0.0 0.00 0.00 0.00 58 1017.4
20260504003432 12 229 0.0 0.0 0.00 0.00 0.00 58 1017.3
20260504003232 12 229 0.0 0.0 0.00 0.00 0.00 58 1017.3
20260504003030 12 229 0.0 0.0 0.00 0.00 0.00 57 1017.3
20260504002632 13 229 0.0 0.0 0.00 0.00 0.00 56 1017.2
20260504002430 13 229 0.0 0.0 0.00 0.00 0.00 55 1017.3
20260504002230 13 229 0.0 0.0 0.00 0.00 0.00 55 1017.3
20260504002030 13 229 0.0 0.0 0.00 0.00 0.00 54 1017.2
20260504001828 13 229 0.0 0.0 0.00 0.00 0.00 54 1017.2
20260504001629 13 229 0.0 0.0 0.00 0.00 0.00 53 1017.2
20260504001428 13 229 0.0 0.0 0.00 0.00 0.00 53 1017.2
20260504000828 14 229 0.0 0.0 0.00 0.00 0.00 52 1017.1
20260504000629 14 229 0.0 0.0 0.00 0.00 0.00 51 1017.1
20260504000227 14 229 0.0 0.0 0.00 0.00 0.00 51 1017.1
20260504000026 14 229 0.0 0.0 0.00 0.00 0.00 50 1017.0
20260503235626 15 229 0.0 0.0 0.00 0.00 0.00 49 1017.0
20260503235227 15 229 0.0 0.0 0.00 0.00 0.00 48 1017.0
20260503234826 15 229 0.0 0.0 0.00 0.00 0.00 47 1017.0
20260503234626 15 229 0.0 0.0 0.00 0.00 0.00 47 1016.9
20260503234427 15 229 0.0 0.0 0.00 0.00 0.00 47 1016.9
20260503234026 15 229 0.0 0.0 0.00 0.00 0.00 46 1016.8
20260503233828 15 229 0.0 0.0 0.00 0.00 0.00 46 1016.8
20260503233629 16 229 0.0 0.0 0.00 0.00 0.00 45 1016.8
20260503233426 16 229 0.0 0.0 0.00 0.00 0.00 45 1016.8
20260503233227 16 229 0.0 0.0 0.00 0.00 0.00 45 1016.8
20260503233027 16 229 0.0 0.0 0.00 0.00 0.00 44 1016.8
20260503232826 16 229 0.0 0.0 0.00 0.00 0.00 44 1016.8
20260503232628 16 229 0.0 0.0 0.00 0.00 0.00 44 1016.8
20260503232426 16 229 0.0 0.0 0.00 0.00 0.00 44 1016.8
20260503232228 16 229 0.0 0.0 0.00 0.00 0.00 44 1016.8
20260503232025 16 229 0.0 0.0 0.00 0.00 0.00 44 1016.8
20260503231827 16 229 0.0 0.0 0.00 0.00 0.00 43 1016.8
20260503231626 16 229 0.0 0.0 0.00 0.00 0.00 43 1016.8
20260503231426 16 229 0.0 0.0 0.00 0.00 0.00 45 1016.8
20260503231228 16 229 0.0 0.0 0.00 0.00 0.00 45 1016.8
20260503231026 16 240 0.0 0.0 0.00 0.00 0.00 45 1016.9
20260503230827 17 240 0.0 0.0 0.00 0.00 0.00 43 1016.9
20260503230626 17 240 0.0 0.0 0.00 0.00 0.00 43 1016.9
20260503230427 17 240 0.0 0.0 0.00 0.00 0.00 41 1016.9
20260503230227 17 240 0.0 0.0 0.00 0.00 0.00 41 1016.9
20260503230026 17 240 0.0 0.0 0.00 0.00 0.00 41 1017.0
20260503225629 17 240 0.0 4.8 0.00 0.00 0.00 42 1017.0
20260503225428 17 240 1.6 8.0 0.00 0.00 0.00 44 1016.9
20260503225226 17 240 1.6 8.0 0.00 0.00 0.00 43 1016.9
20260503225026 17 240 1.6 8.0 0.00 0.00 0.00 37 1016.9
20260503224826 17 239 1.6 8.0 0.00 0.00 0.00 40 1016.9
20260503224626 17 355 1.6 8.0 0.00 0.00 0.00 37 1016.9
20260503224426 17 346 1.6 4.8 0.00 0.00 0.00 40 1017.0
20260503224226 17 78 1.6 4.8 0.00 0.00 0.00 44 1017.0
20260503224026 17 17 1.6 4.8 0.00 0.00 0.00 44 1017.0
20260503223827 17 44 1.6 6.4 0.00 0.00 0.00 39 1017.0
20260503223628 17 44 1.6 6.4 0.00 0.00 0.00 37 1017.0
20260503223427 17 38 1.6 6.4 0.00 0.00 0.00 39 1017.0
20260503223226 17 346 1.6 6.4 0.00 0.00 0.00 38 1017.1
20260503223027 17 348 1.6 6.4 0.00 0.00 0.00 41 1017.1
20260503222825 17 44 1.6 6.4 0.00 0.00 0.00 37 1017.1
20260503222623 17 44 1.6 6.4 0.00 0.00 0.00 38 1017.2
20260503222421 17 344 1.6 6.4 0.00 0.00 0.00 38 1017.1
20260503222220 17 355 1.6 4.8 0.00 0.00 0.00 37 1017.2
20260503222020 18 279 1.6 4.8 0.00 0.00 0.00 42 1017.2
20260503221820 18 329 1.6 4.8 0.00 0.00 0.00 43 1017.2
20260503221622 18 328 1.6 4.8 0.00 0.00 0.00 40 1017.2
20260503221422 18 328 1.6 4.8 0.00 0.00 0.00 36 1017.2
20260503221219 18 315 1.6 4.8 0.00 0.00 0.00 37 1017.2
20260503221018 18 293 1.6 3.2 0.00 0.00 0.00 40 1017.1
20260503220618 18 212 1.6 3.2 0.00 0.00 0.00 36 1017.1
20260503220215 18 211 1.6 3.2 0.00 0.00 0.00 40 1017.1
20260503220014 18 306 3.2 8.0 0.00 0.00 0.00 41 1017.1
20260503215609 18 271 1.6 8.0 0.00 0.00 0.00 37 1017.2
20260503215406 18 337 1.6 8.0 0.00 0.00 0.00 40 1017.2
20260503215203 18 331 1.6 8.0 0.00 0.00 0.00 38 1017.1
20260503215003 18 70 1.6 4.8 0.00 0.00 0.00 37 1017.1
20260503214802 18 5 1.6 4.8 0.00 0.00 0.00 39 1017.1
20260503214602 18 5 1.6 4.8 0.00 0.00 0.00 41 1017.1
20260503214400 18 5 1.6 8.0 0.00 0.00 0.00 40 1017.1
20260503213958 18 0 1.6 8.0 0.00 0.00 0.00 36 1017.2
20260503213757 18 0 1.6 8.0 0.00 0.00 0.00 37 1017.2
20260503213556 18 0 3.2 8.0 0.00 0.00 0.00 37 1017.2
20260503213352 18 74 1.6 8.0 0.00 0.00 0.00 36 1017.3
20260503212952 18 178 1.6 8.0 0.00 0.00 0.00 39 1017.4
20260503212754 18 165 1.6 6.4 0.00 0.00 0.00 39 1017.3
20260503212553 18 165 1.6 6.4 0.00 0.00 0.00 36 1017.2
20260503212352 18 165 1.6 6.4 0.00 0.00 0.00 36 1017.2
20260503212152 18 333 1.6 6.4 0.00 0.00 0.00 39 1017.3
20260503211952 18 175 1.6 4.8 0.00 0.00 0.00 36 1017.3
20260503211753 18 175 1.6 4.8 0.00 0.00 0.00 35 1017.3
20260503211552 18 175 1.6 4.8 0.00 0.00 0.00 35 1017.3
20260503211151 18 174 1.6 6.4 0.00 0.00 0.00 36 1017.3
20260503210952 18 174 1.6 6.4 0.00 0.00 0.00 36 1017.4
20260503210751 18 175 1.6 6.4 0.00 0.00 0.00 36 1017.4
20260503210550 18 277 1.6 6.4 0.00 0.00 0.00 36 1017.4
20260503210147 18 179 1.6 4.8 0.00 0.00 0.00 36 1017.4
20260503205947 18 349 1.6 4.8 0.00 0.00 0.00 37 1017.4
20260503205748 18 123 1.6 4.8 0.00 0.00 0.00 36 1017.4
20260503205546 18 125 1.6 4.8 0.00 0.00 0.00 35 1017.3
20260503205345 18 327 1.6 8.0 0.00 0.00 0.00 37 1017.3
20260503204744 18 126 3.2 8.0 0.00 0.00 0.00 37 1017.4
20260503204544 18 13 3.2 8.0 0.00 0.00 0.00 38 1017.6
20260503204344 18 11 3.2 8.0 0.00 0.00 0.00 37 1017.5
20260503204142 18 355 1.6 6.4 0.00 0.00 0.00 38 1017.5
20260503203944 17 65 1.6 12.9 0.00 0.00 0.00 38 1017.6
20260503203544 17 276 1.6 12.9 0.00 0.00 0.00 39 1017.7
20260503203340 17 277 1.6 12.9 0.00 0.00 0.00 37 1017.7
20260503202942 17 127 1.6 4.8 0.00 0.00 0.00 37 1017.6
20260503202740 17 292 1.6 4.8 0.00 0.00 0.00 38 1017.6
20260503202540 17 290 1.6 4.8 0.00 0.00 0.00 38 1017.6
20260503202341 17 44 1.6 4.8 0.00 0.00 0.00 39 1017.6
20260503202139 17 44 1.6 4.8 0.00 0.00 0.00 38 1017.7
20260503201939 17 44 1.6 6.4 0.00 0.00 0.00 38 1017.7
20260503201737 17 44 3.2 6.4 0.00 0.00 0.00 38 1017.8
20260503201333 17 38 3.2 8.0 0.00 0.00 0.00 40 1017.9
20260503201132 17 123 3.2 8.0 0.00 0.00 0.00 38 1017.9
20260503200932 17 42 3.2 8.0 0.00 0.00 0.00 39 1017.9
20260503200732 17 150 3.2 8.0 0.00 0.00 0.00 40 1017.9
20260503200531 17 355 1.6 8.0 0.00 0.00 0.00 38 1017.9
20260503200329 17 117 3.2 8.0 0.00 0.00 0.00 38 1017.9
20260503200130 17 155 3.2 8.0 0.00 0.00 0.00 39 1018.0
20260503195932 17 190 3.2 8.0 0.00 0.00 0.00 39 1018.0
20260503195728 17 192 3.2 8.0 0.00 0.00 0.00 38 1018.0
20260503195529 17 5 3.2 8.0 0.00 0.00 0.00 38 1018.1
20260503195329 17 331 3.2 8.0 0.00 0.00 0.00 40 1018.0
20260503195130 17 66 3.2 8.0 0.00 0.00 0.00 39 1018.0
20260503194929 17 0 3.2 9.7 0.00 0.00 0.00 38 1018.0
20260503194729 17 348 3.2 9.7 0.00 0.00 0.00 37 1018.0
20260503194526 17 342 3.2 9.7 0.00 0.00 0.00 37 1018.2
20260503194128 17 25 3.2 9.7 0.00 0.00 0.00 38 1018.2
20260503193525 17 28 1.6 4.8 0.00 0.00 0.00 38 1018.2
20260503193326 17 44 1.6 4.8 0.00 0.00 0.00 38 1018.3
20260503193126 17 86 1.6 4.8 0.00 0.00 0.00 39 1018.3
20260503192925 17 317 3.2 6.4 0.00 0.00 0.00 40 1018.4
20260503192524 17 239 3.2 8.0 0.00 0.00 0.00 39 1018.4
20260503192324 17 84 3.2 8.0 0.00 0.00 0.00 39 1018.4
20260503192124 17 163 3.2 8.0 0.00 0.00 0.00 39 1018.4
20260503191922 17 68 3.2 8.0 0.00 0.00 0.00 39 1018.4
20260503191519 17 264 1.6 4.8 0.00 0.00 0.00 39 1018.4
20260503191122 16 247 1.6 4.8 0.00 0.00 0.00 38 1018.5
20260503190921 16 153 3.2 12.9 0.00 0.00 0.00 39 1018.6
20260503190320 16 5 1.6 12.9 0.00 0.00 0.00 39 1018.7
20260503190118 16 5 1.6 12.9 0.00 0.00 0.00 39 1018.7
20260503185920 16 355 1.6 11.3 0.00 0.00 0.00 39 1018.7
20260503185718 16 240 1.6 8.0 0.00 0.00 0.00 39 1018.8
20260503185519 16 147 1.6 8.0 0.00 0.00 0.00 40 1018.8
20260503185316 16 148 3.2 8.0 0.00 0.00 0.00 39 1018.7
20260503185116 16 149 3.2 8.0 0.00 0.00 0.00 38 1018.8
20260503184914 16 150 3.2 9.7 0.00 0.00 0.00 38 1018.8
20260503184713 16 40 3.2 9.7 0.00 0.00 0.00 38 1018.8
20260503184513 16 334 3.2 9.7 0.00 0.00 0.00 39 1018.9
20260503184312 16 31 3.2 9.7 0.00 0.00 0.00 38 1018.9
20260503183910 16 5 4.8 11.3 0.00 0.00 0.00 38 1019.0
20260503183710 16 76 3.2 11.3 0.00 0.00 0.00 38 1019.0
20260503183511 16 142 4.8 12.9 0.00 0.00 0.00 37 1019.0
20260503183310 16 207 4.8 12.9 0.00 0.00 0.00 38 1019.0
20260503183110 16 15 4.8 12.9 0.00 0.00 0.00 38 1019.1
20260503182908 16 206 4.8 12.9 0.00 0.00 0.00 39 1019.0
20260503182507 16 108 4.8 11.3 0.00 0.00 0.00 39 1019.1
20260503182307 16 272 3.2 11.3 0.00 0.00 0.00 39 1019.2
20260503181907 16 188 4.8 11.3 0.00 0.00 0.00 39 1019.2
20260503181706 16 112 4.8 16.1 0.00 0.00 0.00 40 1019.2
20260503181506 16 61 4.8 16.1 0.00 0.00 0.00 39 1019.2
20260503181104 16 197 4.8 16.1 0.00 0.00 0.00 39 1019.3
20260503180903 16 355 4.8 16.1 0.00 0.00 0.00 39 1019.3
20260503180703 16 130 3.2 8.0 0.00 0.00 0.00 41 1019.2
20260503180502 16 52 3.2 14.5 0.00 0.00 0.00 40 1019.2
20260503180302 16 5 3.2 14.5 0.00 0.00 0.00 41 1019.3
20260503180103 16 348 3.2 14.5 0.00 0.00 0.00 41 1019.3
20260503175902 16 130 3.2 14.5 0.00 0.00 0.00 40 1019.3
20260503175700 16 145 3.2 14.5 0.00 0.00 0.00 39 1019.3
20260503175500 16 294 4.8 8.0 0.00 0.00 0.00 40 1019.3
20260503175301 16 329 4.8 16.1 0.00 0.00 0.00 38 1019.3
20260503175058 16 182 4.8 16.1 0.00 0.00 0.00 40 1019.3
20260503174857 16 74 3.2 16.1 0.00 0.00 0.00 40 1019.3
20260503174456 16 24 3.2 16.1 0.00 0.00 0.00 41 1019.5
20260503174256 15 347 3.2 9.7 0.00 0.00 0.00 40 1019.5
20260503174056 15 329 3.2 11.3 0.00 0.00 0.00 41 1019.5
20260503173856 15 170 3.2 11.3 0.00 0.00 0.00 41 1019.4
20260503173657 15 88 3.2 11.3 0.00 0.00 0.00 41 1019.5
20260503173457 15 348 3.2 11.3 0.00 0.00 0.00 41 1019.5
20260503173255 15 84 3.2 11.3 0.00 0.00 0.00 41 1019.5
20260503173056 15 167 3.2 9.7 0.00 0.00 0.00 41 1019.6
20260503172857 15 350 3.2 9.7 0.00 0.00 0.00 40 1019.6
20260503172454 15 338 3.2 9.7 0.00 0.00 0.00 41 1019.7
20260503172252 15 328 3.2 9.7 0.00 0.00 0.00 41 1019.7
20260503172050 15 246 3.2 8.0 0.00 0.00 0.00 40 1019.8
20260503171850 15 344 4.8 9.7 0.00 0.00 0.00 40 1019.8
20260503171246 15 24 3.2 11.3 0.00 0.00 0.00 41 1019.9
20260503170847 15 262 3.2 11.3 0.00 0.00 0.00 42 1019.9
20260503170646 15 34 3.2 6.4 0.00 0.00 0.00 42 1019.9
20260503150819 13 22 3.2 12.9 0.00 0.00 0.00 46 1020.9
20260503150418 13 345 3.2 12.9 0.00 0.00 0.00 46 1021.0
20260503150217 13 32 3.2 12.9 0.00 0.00 0.00 46 1021.0